CDT,Max TemperatureF,Mean TemperatureF,Min TemperatureF,Max Dew PointF,MeanDew PointF,Min DewpointF,Max Humidity, Mean Humidity, Min Humidity, Max Sea Level PressureIn, Mean Sea Level PressureIn, Min Sea Level PressureIn, Max VisibilityMiles, Mean VisibilityMiles, Min VisibilityMiles, Max Wind SpeedMPH, Mean Wind SpeedMPH, Max Gust SpeedMPH,PrecipitationIn, CloudCover, Events, WindDirDegrees
2012-10-1,71,55,39,48,38,28,87,55,28,30.03,29.97,29.90,10,10,7,21,5,29,0.00,1,,1
2012-10-2,73,50,28,36,28,21,100,52,15,30.01,29.93,29.83,10,10,5,13,2,16,0.00,0,,203
2012-10-3,78,56,35,39,32,27,81,44,16,29.95,29.83,29.73,10,10,5,22,6,30,0.00,0,,188
2012-10-4,53,40,28,39,31,25,86,62,38,30.31,30.18,29.95,10,10,10,25,16,38,0.00,3,,324
2012-10-5,50,37,24,27,22,18,93,60,30,30.32,30.28,30.22,10,10,10,18,5,28,0.00,0,,316
2012-10-6,44,32,21,25,20,18,86,64,37,30.35,30.31,30.27,10,10,7,15,6,22,0.00,4,,321
2012-10-7,57,34,12,27,18,10,93,56,21,30.28,30.11,29.92,10,10,10,17,5,24,0.00,0,,223
2012-10-8,73,55,37,48,31,23,88,49,17,29.91,29.80,29.69,10,10,7,20,10,29,0.01,2,Rain,225
2012-10-9,51,40,28,48,35,25,100,71,35,30.11,29.94,29.81,10,10,10,25,7,34,0.05,3,Rain,310
2012-10-10,62,44,26,28,26,21,93,55,25,30.19,30.08,29.94,10,10,10,15,4,22,0.00,0,,224
2012-10-11,51,40,28,34,27,21,74,52,38,30.39,30.13,29.92,10,10,10,17,10,26,0.00,0,,40
2012-10-12,57,38,19,43,22,12,93,56,17,30.40,30.24,29.97,10,10,10,23,6,30,0.00,3,,166
2012-10-13,71,60,48,57,51,41,100,80,57,29.93,29.72,29.64,10,8,3,18,10,23,0.00,6,Rain,202
2012-10-14,64,52,37,48,37,30,93,60,32,29.97,29.85,29.67,10,9,5,20,9,31,0.00,0,,345
2012-10-15,69,48,28,41,34,25,93,60,28,29.98,29.88,29.71,10,10,10,14,4,18,0.00,0,,180
2012-10-16,75,62,48,46,44,41,87,57,31,29.70,29.51,29.35,10,10,10,14,7,20,0.00,0,,241
2012-10-17,64,52,39,48,38,25,82,57,40,29.51,29.41,29.23,10,10,7,29,15,41,0.00,5,Rain,289
2012-10-18,48,44,39,43,38,28,100,88,46,29.54,29.43,29.35,10,9,2,31,22,41,0.70,8,Rain,310
2012-10-19,42,40,39,39,39,37,100,90,81,29.80,29.71,29.55,10,9,3,23,16,34,0.02,8,Rain,329
2012-10-20,60,44,28,45,39,28,100,81,52,29.81,29.76,29.69,10,8,0,14,3,18,0.00,1,Fog,158
2012-10-21,71,58,44,46,43,39,87,67,33,29.87,29.75,29.67,10,10,7,16,8,20,0.00,1,,176
2012-10-22,59,54,48,54,48,45,100,81,72,29.89,29.83,29.74,10,10,5,12,7,18,0.02,7,,39
2012-10-23,59,52,44,55,53,45,100,94,88,29.78,29.73,29.68,7,4,0,12,3,,0.00,7,Fog,195
2012-10-24,53,48,42,52,46,36,100,91,71,29.84,29.81,29.78,10,6,0,15,6,22,0.04,8,Fog-Rain,18
2012-10-25,42,37,32,37,31,28,100,86,75,30.31,30.04,29.75,10,8,2,23,15,31,0.42,8,Rain-Snow,333
2012-10-26,37,34,32,28,25,21,81,67,56,30.47,30.41,30.31,10,10,10,15,8,21,0.00,8,,315
2012-10-27,42,30,19,30,24,18,100,74,49,30.39,30.32,30.25,10,10,10,10,2,,0.00,3,,179
2012-10-28,50,39,28,30,28,25,93,64,43,30.29,30.23,30.17,10,10,10,18,7,23,0.00,4,,170
2012-10-29,55,46,37,30,29,27,75,55,38,30.21,30.15,30.11,10,10,10,18,12,26,0.00,2,,163
2012-10-30,50,42,33,30,27,21,81,61,34,30.13,30.09,30.06,10,10,10,13,5,16,0.00,4,,115
2012-10-31,57,39,21,36,29,21,100,74,36,30.07,30.02,29.96,10,9,4,7,1,,0.00,0,,215